When you browse on this site, cookies collect data to enhance your experience and personalize the content and advertising you see.
Visit our Privacy Policy to learn more. By continuing to use the site, you agree to this use of cookies and data.
  • In Latvia
  • List of Countries
  • For 7 days
  • Water Temperature
  • Weather Map
  • Weather Widgets
  • user-avatar
    Login

    Hourly Weather Sidi Bu-l-Abbas

    Today, 26 February, Wednesday

    Time Temperature Precipitation Wind Pressure Humidity
    00:00 +10°C° 0 mm 5 mps 722 mmHg 74%
    01:00 +10°C° 0 mm 5 mps 722 mmHg 74%
    02:00 +9°C° 0 mm 5 mps 722 mmHg 75%
    03:00 +9°C° 0 mm 5 mps 722 mmHg 76%
    04:00 +9°C° 0 mm 5 mps 722 mmHg 78%
    05:00 +9°C° 0 mm 5 mps 722 mmHg 80%
    06:00 +9°C° 0 mm 5 mps 722 mmHg 82%
    07:00 +10°C° 0 mm 6 mps 722 mmHg 79%
    08:00 +11°C° 0 mm 7 mps 723 mmHg 76%
    09:00 +12°C° 0 mm 9 mps 723 mmHg 72%
    10:00 +13°C° 0 mm 9 mps 723 mmHg 70%
    11:00 +15°C° 0 mm 9 mps 723 mmHg 69%
    12:00 +15°C° 0 mm 9 mps 723 mmHg 67%
    13:00 +14°C° 0 mm 10 mps 723 mmHg 64%
    14:00 +16°C° 0 mm 10 mps 722 mmHg 62%
    15:00 +16°C° 0 mm 10 mps 722 mmHg 60%
    16:00 +13°C° 0 mm 8 mps 722 mmHg 65%
    17:00 +12°C° 0 mm 7 mps 722 mmHg 70%
    18:00 +12°C° 0 mm 5 mps 722 mmHg 75%
    19:00 +10°C° 0 mm 5 mps 722 mmHg 78%
    20:00 +10°C° 0 mm 4 mps 722 mmHg 80%
    21:00 +10°C° 0 mm 3 mps 723 mmHg 82%
    22:00 +10°C° 0 mm 3 mps 723 mmHg 81%
    23:00 +9°C° 0 mm 3 mps 723 mmHg 80%

    Tomorrow, 27 February, Thursday

    Time Temperature Precipitation Wind Pressure Humidity
    00:00 +9°C° 0 mm 3 mps 723 mmHg 79%
    01:00 +9°C° 0 mm 3 mps 723 mmHg 77%
    02:00 +9°C° 0 mm 2 mps 722 mmHg 74%
    03:00 +8°C° 0 mm 2 mps 722 mmHg 72%
    04:00 +8°C° 0 mm 2 mps 722 mmHg 70%
    05:00 +8°C° 0 mm 2 mps 722 mmHg 69%
    06:00 +8°C° 0 mm 2 mps 722 mmHg 67%
    07:00 +10°C° 0 mm 3 mps 723 mmHg 62%
    08:00 +12°C° 0 mm 3 mps 724 mmHg 57%
    09:00 +14°C° 0 mm 4 mps 724 mmHg 53%
    10:00 +15°C° 0 mm 5 mps 725 mmHg 49%
    11:00 +17°C° 0 mm 6 mps 725 mmHg 46%
    12:00 +18°C° 0 mm 7 mps 725 mmHg 43%
    13:00 +19°C° 0 mm 6 mps 724 mmHg 43%
    14:00 +19°C° 0 mm 6 mps 724 mmHg 44%
    15:00 +19°C° 0 mm 6 mps 724 mmHg 44%
    16:00 +17°C° 0 mm 4 mps 723 mmHg 52%
    17:00 +14°C° 0 mm 3 mps 723 mmHg 59%
    18:00 +13°C° 0 mm 1 mps 723 mmHg 66%
    19:00 +12°C° 0 mm 1 mps 723 mmHg 67%
    20:00 +11°C° 0 mm 1 mps 724 mmHg 68%
    21:00 +11°C° 0 mm 1 mps 724 mmHg 69%
    22:00 +10°C° 0 mm 1 mps 724 mmHg 69%
    23:00 +10°C° 0 mm 1 mps 724 mmHg 68%

    Day after tomorrow, 28 February, Friday

    Time Temperature Precipitation Wind Pressure Humidity
    00:00 +9°C° 0 mm 0 mps 724 mmHg 68%
    01:00 +9°C° 0 mm 0 mps 723 mmHg 68%
    02:00 +8°C° 0 mm 0 mps 723 mmHg 68%
    03:00 +8°C° 0 mm 0 mps 723 mmHg 68%
    04:00 +9°C° 0 mm 1 mps 723 mmHg 67%
    05:00 +9°C° 0 mm 1 mps 722 mmHg 67%
    06:00 +9°C° 0 mm 1 mps 722 mmHg 66%
    07:00 +12°C° 0 mm 1 mps 723 mmHg 57%
    08:00 +15°C° 0 mm 2 mps 723 mmHg 48%
    09:00 +17°C° 0 mm 2 mps 724 mmHg 39%
    10:00 +19°C° 0 mm 2 mps 724 mmHg 34%
    11:00 +21°C° 0 mm 2 mps 724 mmHg 29%
    12:00 +24°C° 0 mm 2 mps 724 mmHg 25%
    13:00 +25°C° 0 mm 2 mps 723 mmHg 25%
    14:00 +25°C° 0 mm 3 mps 723 mmHg 24%
    15:00 +26°C° 0 mm 3 mps 722 mmHg 24%
    16:00 +23°C° 0 mm 2 mps 721 mmHg 33%
    17:00 +19°C° 0 mm 2 mps 721 mmHg 42%
    18:00 +16°C° 0 mm 1 mps 720 mmHg 51%
    19:00 +15°C° 0 mm 1 mps 721 mmHg 53%
    20:00 +15°C° 0 mm 1 mps 721 mmHg 54%
    21:00 +13°C° 0 mm 0 mps 721 mmHg 56%
    22:00 +14°C° 0 mm 1 mps 721 mmHg 54%
    23:00 +14°C° 0 mm 1 mps 721 mmHg 53%

    29 February, Saturday

    Time Temperature Precipitation Wind Pressure Humidity
    00:00 +14°C° 0 mm 1 mps 721 mmHg 51%
    01:00 +14°C° 0 mm 2 mps 720 mmHg 50%
    02:00 +14°C° 0 mm 2 mps 720 mmHg 49%
    03:00 +13°C° 0 mm 3 mps 720 mmHg 48%
    04:00 +13°C° 0 mm 3 mps 720 mmHg 49%
    05:00 +13°C° 0 mm 3 mps 720 mmHg 51%
    06:00 +13°C° 0 mm 3 mps 720 mmHg 52%
    07:00 +14°C° 0 mm 3 mps 720 mmHg 50%
    08:00 +17°C° 0 mm 4 mps 721 mmHg 48%
    09:00 +18°C° 0 mm 4 mps 721 mmHg 45%
    10:00 +19°C° 0 mm 5 mps 722 mmHg 44%
    11:00 +20°C° 0 mm 6 mps 722 mmHg 42%
    12:00 +21°C° 0 mm 6 mps 722 mmHg 41%
    13:00 +21°C° 0 mm 7 mps 721 mmHg 41%
    14:00 +21°C° 0 mm 7 mps 721 mmHg 41%
    15:00 +21°C° 0 mm 7 mps 721 mmHg 41%
    16:00 +19°C° 0 mm 5 mps 720 mmHg 49%
    17:00 +17°C° 0 mm 4 mps 720 mmHg 57%
    18:00 +14°C° 0 mm 3 mps 720 mmHg 65%
    19:00 +13°C° 0 mm 3 mps 721 mmHg 66%
    20:00 +13°C° 0 mm 3 mps 721 mmHg 67%
    21:00 +12°C° 0 mm 3 mps 721 mmHg 68%
    22:00 +12°C° 0 mm 3 mps 721 mmHg 70%
    23:00 +12°C° 0 mm 3 mps 721 mmHg 71%

    1 March, Sunday

    Time Temperature Precipitation Wind Pressure Humidity
    00:00 +12°C° 0 mm 3 mps 721 mmHg 73%
    01:00 +12°C° 0 mm 4 mps 721 mmHg 75%
    02:00 +11°C° 0 mm 4 mps 721 mmHg 78%
    03:00 +11°C° 0 mm 4 mps 721 mmHg 80%
    04:00 +11°C° 0 mm 3 mps 721 mmHg 81%
    05:00 +11°C° 0 mm 3 mps 721 mmHg 81%
    06:00 +10°C° 0 mm 3 mps 721 mmHg 82%
    07:00 +12°C° 0 mm 4 mps 721 mmHg 78%
    08:00 +13°C° 0 mm 5 mps 722 mmHg 74%
    09:00 +15°C° 0 mm 6 mps 722 mmHg 69%
    10:00 +16°C° 0 mm 6 mps 722 mmHg 66%
    11:00 +17°C° 0 mm 6 mps 722 mmHg 62%
    12:00 +19°C° 0 mm 6 mps 722 mmHg 58%
    13:00 +19°C° 0 mm 6 mps 722 mmHg 55%
    14:00 +20°C° 0 mm 6 mps 721 mmHg 52%
    15:00 +20°C° 0 mm 6 mps 720 mmHg 50%
    16:00 +17°C° 0 mm 5 mps 720 mmHg 61%
    17:00 +16°C° 0 mm 3 mps 720 mmHg 73%
    18:00 +14°C° 0 mm 2 mps 720 mmHg 85%
    19:00 +14°C° 0 mm 2 mps 720 mmHg 87%
    20:00 +13°C° 0 mm 2 mps 721 mmHg 89%
    21:00 +12°C° 0 mm 3 mps 721 mmHg 91%
    22:00 +12°C° 0 mm 3 mps 721 mmHg 87%
    23:00 +12°C° 0 mm 3 mps 721 mmHg 84%

    2 March, Monday

    Time Temperature Precipitation Wind Pressure Humidity
    00:00 +12°C° 0 mm 3 mps 721 mmHg 80%
    01:00 +12°C° 0 mm 3 mps 721 mmHg 78%
    02:00 +12°C° 0 mm 4 mps 721 mmHg 76%
    03:00 +12°C° 0 mm 4 mps 720 mmHg 73%
    04:00 +12°C° 0 mm 4 mps 720 mmHg 74%
    05:00 +12°C° 0 mm 4 mps 720 mmHg 74%
    06:00 +12°C° 0 mm 4 mps 720 mmHg 74%
    07:00 +13°C° 0 mm 5 mps 721 mmHg 71%
    08:00 +14°C° 0 mm 6 mps 721 mmHg 68%
    09:00 +15°C° 0 mm 6 mps 722 mmHg 65%
    10:00 +17°C° 0 mm 8 mps 722 mmHg 59%
    11:00 +18°C° 0 mm 9 mps 722 mmHg 54%
    12:00 +19°C° 0 mm 11 mps 722 mmHg 49%
    13:00 +19°C° 0 mm 11 mps 721 mmHg 48%
    14:00 +19°C° 0 mm 11 mps 720 mmHg 46%
    15:00 +19°C° 0 mm 11 mps 720 mmHg 45%
    16:00 +18°C° 0 mm 9 mps 720 mmHg 53%
    17:00 +16°C° 0 mm 8 mps 720 mmHg 62%
    18:00 +14°C° 0 mm 6 mps 720 mmHg 70%
    19:00 +14°C° 0 mm 5 mps 720 mmHg 74%
    20:00 +13°C° 0 mm 5 mps 721 mmHg 77%
    21:00 +13°C° 0 mm 5 mps 722 mmHg 81%
    22:00 +12°C° 0 mm 5 mps 722 mmHg 81%
    23:00 +12°C° 0 mm 4 mps 722 mmHg 81%
    Show more